{"data":{"norad_id":63636,"intl_designator":"2025-083C","name":"STARLINK-33864","alt_names":[],"object_type":"PAYLOAD","status":"ACTIVE","operator":null,"country":"US","launch_date":"2025-04-25","launch_site_code":"AFETR","launch_vehicle":null,"mission":null,"orbit_class":"UNKNOWN","rcs_meters":null,"size_class":null,"mass_kg":null,"dimensions":null,"purposes":["comms"],"wikipedia_slug":null,"has_3d_model":false,"image_url":null,"decayed_at":null,"tle_current":{"epoch":"2026-05-25T03:15:06.206400Z","epoch_age_seconds":57374,"freshness":"FRESH","line1":"1 63636U 25083C   26145.13548850  .00015881  00000+0  58519-3 0  9997","line2":"2 63636  42.9993 293.8832 0001365 263.2800  96.7896 15.27591072 61789","mean_motion":15.27591072,"eccentricity":0.0001365,"inclination_deg":42.9993,"raan_deg":293.8832,"arg_perigee_deg":263.28,"mean_anomaly_deg":96.7896,"bstar":0.00058519,"rev_number":6178,"period_min":94.266065467028,"perigee_km":482.07939531209,"apogee_km":483.95249006545,"semimajor_km":6861.1529426888,"source":"CELESTRAK","updated_at":"2026-05-25T13:38:20.052131Z"}}}